Weather History for Valley, United Kingdom

Change the Weather History Date:

Monday, October 22, 2012

  Actual Average Record
Temperature  
Mean Temperature 50 °F -  
Max Temperature 57 °F 53 °F 61 °F (2013)
Min Temperature 43 °F 44 °F 39 °F (1997)
Degree Days  
Heating Degree Days 15    
Moisture  
Dew Point 49 °F    
Average Humidity 88    
Maximum Humidity 94    
Minimum Humidity 78    
Precipitation  
Precipitation 0.00 in 0.13 in - ()
Sea Level Pressure  
Sea Level Pressure 30.16 in    
Wind  
Wind Speed 9 mph ()    
Max Wind Speed 14 mph    
Max Gust Speed -    
Visibility 5.4 miles    
Events Fog , Rain    
Averages and records for this station are not official NWS values.
T = Trace of Precipitation, MM = Missing Value Source: Averaged Metar Reports

Daily Weather History Graph

Daily Weather History Graph

Search for Another Location

Airport:

Trip Planner

Search our weather history database for the weather conditions in past years. The results will help you decide how hot, cold, wet, or windy it might be!

Date:

Astronomy

Oct. 22, 2012 Rise Set
Actual Time 7:58 AM BST 6:05 PM BST
Civil Twilight 7:22 AM BST 6:41 PM BST
Nautical Twilight 6:42 AM BST 7:21 PM BST
Astronomical Twilight 6:01 AM BST 8:02 PM BST
Moon 2:58 PM BST (10/22) No Moon Set
Length of Visible Light 11h 18m
Length of Day
10h 07m
First Quarter, 53% of the Moon is Illuminated
Oct 22
First Quarter
Oct 29
Full
Nov 7
Last Quarter
Nov 13
New
Nov 20
First Quarter

Hourly Weather History & Observations

Time (BST) Temp. Windchill Dew Point Humidity Pressure Visibility Wind Dir Wind Speed Gust Speed Precip Events Conditions
12:50 AM 45 °F - 42 °F 84% 30.14 in 1 mi ENE 4.6 mph - - Fog Fog
12:50 AM 44.6 °F 42.2 °F 41.0 °F 87% 30.12 in 1.1 mi ENE 4.6 mph - N/A   Unknown
1:50 AM 46.4 °F 42.4 °F 42.8 °F 87% 30.12 in 3.7 mi ENE 8.1 mph - N/A   Unknown
2:50 AM 48.2 °F - 44.6 °F 87% 30.12 in 1.2 mi ENE 9.2 mph - N/A   Scattered Clouds
3:50 AM 49 °F - 46 °F 86% 30.13 in 1 mi ENE 9.2 mph - -   Light Haze
3:50 AM 50.0 °F - 46.4 °F 87% 30.12 in 0.9 mi ENE 9.2 mph - N/A   Haze
4:50 AM 50.0 °F - 46.4 °F 87% 30.12 in - ENE 10.4 mph - N/A   Haze
5:50 AM 50.0 °F - 46.4 °F 87% 30.12 in - ENE 11.5 mph - N/A   Clear
6:50 AM 51 °F - 47 °F 83% 30.14 in 12 mi ENE 10.4 mph - -   Overcast
6:50 AM 50.0 °F - 48.2 °F 94% 30.12 in 6.2 mi ENE 10.4 mph - N/A   Overcast
7:50 AM 50.0 °F - 48.2 °F 94% 30.12 in 3.7 mi ENE 11.5 mph - N/A   Mostly Cloudy
8:50 AM 51.8 °F - 48.2 °F 88% 30.15 in 4.3 mi ENE 12.7 mph - N/A   Mostly Cloudy
9:50 AM 51.8 °F - 48.2 °F 88% 30.15 in 6.2 mi East 12.7 mph - N/A   Mostly Cloudy
10:50 AM 53.6 °F - 50.0 °F 88% 30.15 in 6.2 mi ENE 12.7 mph - N/A   Mostly Cloudy
11:50 AM 55.4 °F - 50.0 °F 82% 30.15 in 6.2 mi ENE 13.8 mph - N/A   Scattered Clouds
12:50 PM 55 °F - 50 °F 78% 30.18 in 7 mi East 12.7 mph - -   Partly Cloudy
12:50 PM 55.4 °F - 50.0 °F 82% 30.15 in 6.2 mi East 12.7 mph - N/A   Scattered Clouds
1:50 PM 55.4 °F - 50.0 °F 82% 30.15 in 6.2 mi ENE 13.8 mph - N/A   Mostly Cloudy
2:50 PM 55.4 °F - 50.0 °F 82% 30.18 in 6.2 mi East 13.8 mph - N/A   Mostly Cloudy
3:50 PM 55 °F - 51 °F 81% 30.18 in 7 mi ENE 12.7 mph - -   Scattered Clouds
3:50 PM 55.4 °F - 51.8 °F 88% 30.15 in - ENE 12.7 mph - N/A   Clear
4:50 PM 55.4 °F - 51.8 °F 88% 30.18 in - East 12.7 mph - N/A   Clear
5:50 PM 53.6 °F - 51.8 °F 94% 30.18 in - ENE 10.4 mph - N/A   Clear
6:50 PM 54 °F - 51 °F 86% 30.20 in 12 mi ENE 10.4 mph - -   Mostly Cloudy
6:50 PM 53.6 °F - 51.8 °F 94% 30.18 in - ENE 10.4 mph - N/A   Clear
7:50 PM 53.6 °F - 51.8 °F 94% 30.18 in - ENE 10.4 mph - N/A   Clear
8:50 PM 53.6 °F - 51.8 °F 94% 30.21 in 6.2 mi ENE 10.4 mph - N/A   Mostly Cloudy
9:50 PM 54 °F - 52 °F 91% 30.24 in 6 mi ENE 10.4 mph - - Rain Light Rain
9:50 PM 53.6 °F - 51.8 °F 94% 30.21 in 6.2 mi ENE 10.4 mph - N/A Rain Light Rain
10:50 PM 53.6 °F - 51.8 °F 94% 30.21 in 6.2 mi ENE 10.4 mph - N/A   Overcast
11:50 PM 53.6 °F - 51.8 °F 94% 30.24 in 6.2 mi East 10.4 mph - N/A   Mostly Cloudy